Total_Precipitation_Accumulation
0.36 0.33 0.42 0.64 0.74 0.73 0.73 0.79 1.04 1.06 0.98 0.94 0.93 0.93 0.88 0.89 0.87 0.78 0.72 0.73 0.77 0.83 0.85 0.83 0.82 0.89 0.95 1.04 1.18 1.34 1.49 1.49 1.38 1.21 1.08 1.01 0.97 0.89 0.87 0.87 0.88 0.95 1.00 1.01
0.27 0.24 0.31 0.46 0.56 0.58 0.56 0.57 0.65 0.73 0.75 0.64 0.61 0.64 0.64 0.66 0.62 0.58 0.52 0.48 0.47 0.49 0.49 0.48 0.46 0.47 0.50 0.60 0.78 1.03 1.31 1.32 1.15 1.00 0.85 0.79 0.82 0.85 0.86 0.83 0.88 0.91 0.86 0.88
0.40 0.31 0.31 0.52 0.54 0.49 0.49 0.42 0.43 0.50 0.50 0.46 0.49 0.56 0.57 0.62 0.63 0.50 0.40 0.38 0.36 0.34 0.34 0.34 0.34 0.34 0.38 0.47 0.60 0.78 0.91 0.92 0.84 0.77 0.75 0.81 0.84 0.80 0.81 0.84 0.85 0.85 0.83 0.82
0.41 0.43 0.66 0.83 0.70 0.58 0.53 0.35 0.28 0.30 0.32 0.37 0.48 0.50 0.51 0.49 0.48 0.47 0.37 0.29 0.27 0.27 0.27 0.32 0.33 0.37 0.42 0.49 0.55 0.60 0.63 0.66 0.63 0.63 0.65 0.73 0.77 0.76 0.83 0.88 0.84 0.83 0.87 0.87
0.50 0.58 0.75 0.78 0.66 0.65 0.64 0.49 0.28 0.24 0.25 0.25 0.26 0.28 0.29 0.30 0.28 0.27 0.24 0.20 0.18 0.19 0.20 0.22 0.22 0.24 0.27 0.30 0.32 0.34 0.34 0.36 0.40 0.43 0.46 0.49 0.51 0.61 0.74 0.81 0.85 0.90 0.95 0.95
0.53 0.64 0.77 0.60 0.38 0.39 0.55 0.68 0.27 0.19 0.19 0.18 0.17 0.23 0.23 0.23 0.24 0.20 0.18 0.19 0.19 0.16 0.17 0.19 0.20 0.21 0.20 0.21 0.22 0.23 0.23 0.25 0.28 0.32 0.34 0.37 0.42 0.47 0.55 0.58 0.66 0.80 0.84 0.85
0.50 0.69 0.86 0.62 0.39 0.36 0.64 0.68 0.25 0.17 0.17 0.17 0.17 0.17 0.17 0.19 0.21 0.18 0.17 0.18 0.19 0.19 0.18 0.19 0.22 0.22 0.22 0.22 0.23 0.26 0.29 0.30 0.31 0.31 0.32 0.37 0.41 0.45 0.49 0.53 0.62 0.68 0.73 0.77
0.60 0.93 1.08 0.79 0.56 0.54 0.49 0.25 0.16 0.12 0.13 0.15 0.16 0.15 0.15 0.17 0.18 0.16 0.15 0.16 0.17 0.18 0.21 0.22 0.22 0.22 0.22 0.23 0.25 0.28 0.31 0.33 0.34 0.34 0.36 0.38 0.43 0.49 0.52 0.56 0.59 0.63 0.67 0.71
0.57 0.83 0.81 0.67 0.53 0.41 0.33 0.22 0.13 0.11 0.13 0.17 0.18 0.17 0.19 0.20 0.18 0.17 0.17 0.15 0.15 0.16 0.17 0.18 0.20 0.20 0.20 0.24 0.26 0.29 0.31 0.33 0.36 0.37 0.37 0.36 0.41 0.48 0.52 0.55 0.57 0.61 0.66 0.73
0.32 0.40 0.38 0.36 0.33 0.24 0.20 0.18 0.14 0.13 0.17 0.21 0.23 0.21 0.20 0.20 0.20 0.18 0.17 0.15 0.14 0.16 0.18 0.19 0.20 0.21 0.24 0.25 0.24 0.26 0.32 0.35 0.36 0.37 0.38 0.39 0.41 0.46 0.50 0.54 0.58 0.62 0.67 0.72
0.28 0.27 0.24 0.22 0.22 0.20 0.15 0.12 0.11 0.14 0.18 0.21 0.22 0.22 0.20 0.19 0.22 0.20 0.18 0.18 0.20 0.21 0.20 0.21 0.22 0.24 0.29 0.31 0.28 0.26 0.29 0.32 0.33 0.35 0.39 0.41 0.42 0.45 0.47 0.52 0.62 0.70 0.72 0.75
0.30 0.22 0.23 0.24 0.21 0.17 0.15 0.12 0.11 0.11 0.14 0.17 0.19 0.21 0.21 0.19 0.20 0.23 0.23 0.23 0.24 0.24 0.24 0.25 0.25 0.27 0.30 0.34 0.36 0.35 0.34 0.32 0.32 0.34 0.37 0.40 0.40 0.41 0.45 0.48 0.58 0.63 0.63 0.64
0.20 0.17 0.16 0.17 0.17 0.16 0.13 0.12 0.11 0.12 0.13 0.14 0.16 0.18 0.21 0.21 0.19 0.21 0.23 0.23 0.25 0.26 0.27 0.25 0.24 0.24 0.25 0.29 0.32 0.34 0.35 0.37 0.37 0.37 0.37 0.40 0.40 0.38 0.44 0.45 0.47 0.51 0.54 0.57
0.13 0.14 0.15 0.14 0.14 0.13 0.12 0.13 0.12 0.11 0.11 0.13 0.15 0.16 0.17 0.18 0.17 0.17 0.21 0.23 0.25 0.25 0.25 0.25 0.24 0.24 0.25 0.26 0.30 0.33 0.35 0.39 0.41 0.42 0.43 0.43 0.47 0.50 0.50 0.53 0.54 0.50 0.49 0.50
0.11 0.12 0.13 0.13 0.13 0.12 0.12 0.13 0.13 0.13 0.13 0.15 0.16 0.18 0.18 0.18 0.18 0.18 0.21 0.22 0.23 0.24 0.26 0.28 0.26 0.25 0.27 0.28 0.29 0.30 0.33 0.39 0.43 0.48 0.52 0.50 0.51 0.57 0.58 0.51 0.48 0.49 0.49 0.50
0.14 0.13 0.13 0.14 0.16 0.15 0.13 0.13 0.14 0.15 0.14 0.15 0.18 0.22 0.23 0.22 0.20 0.19 0.20 0.22 0.24 0.25 0.28 0.30 0.30 0.31 0.30 0.29 0.30 0.30 0.32 0.40 0.44 0.46 0.49 0.50 0.50 0.55 0.56 0.54 0.54 0.57 0.58 0.61
0.16 0.16 0.17 0.19 0.20 0.18 0.15 0.15 0.16 0.17 0.18 0.18 0.20 0.22 0.24 0.24 0.23 0.22 0.22 0.23 0.24 0.27 0.29 0.32 0.33 0.34 0.34 0.32 0.32 0.34 0.34 0.37 0.42 0.46 0.47 0.49 0.50 0.54 0.56 0.56 0.58 0.62 0.61 0.66
0.17 0.17 0.18 0.20 0.21 0.19 0.16 0.15 0.16 0.18 0.20 0.22 0.24 0.26 0.28 0.29 0.30 0.29 0.28 0.27 0.28 0.32 0.36 0.38 0.37 0.36 0.34 0.33 0.35 0.37 0.37 0.38 0.40 0.45 0.48 0.51 0.54 0.57 0.62 0.61 0.59 0.63 0.62 0.64
0.22 0.22 0.21 0.22 0.22 0.21 0.20 0.17 0.17 0.19 0.21 0.22 0.24 0.27 0.28 0.28 0.29 0.29 0.29 0.29 0.31 0.35 0.37 0.37 0.39 0.34 0.32 0.35 0.40 0.42 0.44 0.45 0.46 0.48 0.50 0.54 0.56 0.58 0.62 0.62 0.62 0.64 0.66 0.65
0.25 0.23 0.22 0.22 0.21 0.21 0.21 0.19 0.19 0.21 0.23 0.24 0.23 0.24 0.25 0.24 0.24 0.26 0.29 0.32 0.33 0.34 0.33 0.36 0.37 0.36 0.38 0.40 0.44 0.44 0.49 0.53 0.57 0.60 0.61 0.62 0.63 0.66 0.68 0.65 0.66 0.69 0.71 0.70
0.21 0.20 0.20 0.22 0.22 0.22 0.21 0.20 0.21 0.21 0.22 0.23 0.24 0.25 0.25 0.24 0.23 0.25 0.29 0.35 0.35 0.33 0.30 0.36 0.33 0.33 0.39 0.46 0.50 0.48 0.50 0.55 0.58 0.62 0.63 0.65 0.66 0.67 0.69 0.68 0.69 0.72 0.73 0.73
0.21 0.18 0.17 0.17 0.17 0.19 0.20 0.19 0.19 0.18 0.20 0.22 0.24 0.25 0.27 0.28 0.27 0.29 0.32 0.36 0.39 0.41 0.36 0.34 0.32 0.37 0.48 0.53 0.45 0.46 0.49 0.55 0.58 0.62 0.64 0.67 0.70 0.69 0.70 0.73 0.74 0.74 0.76 0.78
0.24 0.21 0.20 0.19 0.19 0.18 0.21 0.22 0.19 0.19 0.21 0.22 0.23 0.26 0.32 0.38 0.39 0.40 0.40 0.37 0.37 0.44 0.42 0.39 0.41 0.49 0.58 0.50 0.44 0.45 0.48 0.51 0.54 0.56 0.62 0.70 0.72 0.72 0.73 0.73 0.74 0.74 0.76 0.79
0.27 0.25 0.22 0.22 0.22 0.24 0.26 0.26 0.24 0.23 0.25 0.28 0.27 0.27 0.29 0.35 0.40 0.41 0.41 0.46 0.48 0.48 0.44 0.46 0.52 0.57 0.58 0.49 0.48 0.49 0.51 0.52 0.53 0.53 0.58 0.62 0.64 0.67 0.71 0.73 0.76 0.77 0.76 0.75
0.27 0.25 0.24 0.24 0.28 0.31 0.29 0.28 0.28 0.26 0.29 0.33 0.32 0.30 0.29 0.32 0.38 0.41 0.38 0.40 0.50 0.53 0.48 0.53 0.59 0.60 0.53 0.50 0.51 0.52 0.54 0.57 0.60 0.61 0.60 0.60 0.62 0.68 0.73 0.75 0.79 0.83 0.84 0.82
0.29 0.28 0.29 0.33 0.35 0.33 0.32 0.35 0.33 0.30 0.29 0.31 0.31 0.29 0.29 0.30 0.32 0.33 0.34 0.37 0.43 0.54 0.57 0.57 0.56 0.56 0.54 0.56 0.58 0.58 0.58 0.59 0.62 0.62 0.60 0.61 0.66 0.71 0.78 0.82 0.84 0.88 0.88 0.85
0.32 0.33 0.34 0.33 0.32 0.32 0.35 0.38 0.37 0.34 0.32 0.34 0.34 0.31 0.31 0.34 0.35 0.37 0.38 0.42 0.46 0.52 0.59 0.65 0.62 0.62 0.63 0.63 0.64 0.64 0.65 0.66 0.67 0.68 0.66 0.67 0.70 0.72 0.77 0.83 0.87 0.92 0.94 0.93